CW3224 Weather Reports


Display with metric or nautical units.
time (UTC)temp
F
wind
direction
speed
MPH
gust
MPH
rain 1hr
in
rain 24hr
in
rain mn
in
humidity
%
barometer
mb
20190822154750 82 214 1.0 4.0 0.00 0.96 0.00 78 1009.8
20190822153750 80 214 0.0 2.0 0.00 0.96 0.00 82 1009.8
20190822152748 83 274 2.0 6.0 0.00 0.96 0.00 79 1009.6
20190822151746 82 157 2.0 5.0 0.00 0.96 0.00 81 1009.9
20190822150745 82 178 2.0 4.0 0.00 0.96 0.00 79 1009.9
20190822145745 82 185 1.0 6.0 0.00 0.96 0.00 78 1010.0
20190822144745 80 262 1.0 4.0 0.00 0.96 0.00 83 1010.2
20190822143739 80 216 1.0 4.0 0.00 0.96 0.00 83 1010.2
20190822142738 80 201 2.0 5.0 0.00 0.96 0.00 83 1010.0
20190822141738 79 157 1.0 8.0 0.00 0.96 0.00 82 1009.9
20190822140739 79 231 2.0 5.0 0.00 0.96 0.00 84 1009.9
20190822135731 78 123 2.0 4.0 0.00 0.96 0.00 83 1010.0
20190822134731 77 146 1.0 5.0 0.00 0.96 0.00 84 1010.0
20190822133732 76 148 1.0 3.0 0.00 0.96 0.00 86 1010.0
20190822132733 76 163 1.0 4.0 0.00 0.96 0.00 87 1010.0
20190822131731 74 160 1.0 4.0 0.00 0.96 0.00 87 1010.2
20190822130731 74 167 0.0 2.0 0.00 0.96 0.00 88 1010.2
20190822125731 73 170 0.0 0.0 0.00 0.96 0.00 90 1010.1
20190822124731 72 173 0.0 0.0 0.00 0.96 0.00 91 1010.2
20190822123731 72 173 0.0 0.0 0.00 0.96 0.00 92 1010.2
20190822122733 71 174 0.0 4.0 0.00 0.96 0.00 93 1010.1
20190822121733 70 202 0.0 0.0 0.00 0.96 0.00 95 1010.1
20190822120731 69 206 0.0 0.0 0.00 0.96 0.00 96 1010.1
20190822115732 68 206 0.0 0.0 0.00 0.96 0.00 96 1010.1
20190822114733 68 206 0.0 0.0 0.00 0.96 0.00 96 1010.2
20190822113732 67 209 0.0 0.0 0.00 0.96 0.00 96 1010.2
20190822112732 67 213 0.0 0.0 0.00 0.96 0.00 97 1010.3
20190822111723 66 213 0.0 0.0 0.00 0.96 0.00 97 1010.1
20190822110724 65 213 0.0 0.0 0.00 0.96 0.00 97 1010.1
20190822105723 65 213 0.0 1.0 0.00 0.96 0.00 97 1010.0
20190822104725 65 213 0.0 0.0 0.00 0.96 0.00 97 1010.0
20190822103721 65 213 0.0 1.0 0.00 0.96 0.00 97 1010.0
20190822102721 65 213 0.0 2.0 0.00 0.96 0.00 97 1009.9
20190822101721 64 17 0.0 0.0 0.00 0.96 0.00 97 1009.7
20190822100721 64 17 0.0 0.0 0.00 0.96 0.00 97 1009.7
20190822095719 64 17 0.0 0.0 0.00 0.96 0.00 97 1009.5
20190822094718 64 17 0.0 0.0 0.00 0.96 0.00 97 1009.5
20190822093719 64 17 0.0 0.0 0.00 0.96 0.00 96 1009.5
20190822092717 64 17 0.0 0.0 0.00 0.96 0.00 96 1009.5
20190822091718 65 17 0.0 0.0 0.00 0.96 0.00 97 1009.4
20190822090717 65 17 0.0 0.0 0.00 0.96 0.00 96 1009.4
20190822085717 65 17 0.0 0.0 0.00 0.96 0.00 96 1009.2
20190822084717 65 17 0.0 0.0 0.00 0.96 0.00 96 1009.2
20190822083718 65 17 0.0 0.0 0.00 0.96 0.00 96 1009.2
20190822082717 65 17 0.0 0.0 0.00 0.96 0.00 96 1009.2
20190822081718 65 17 0.0 0.0 0.00 0.96 0.00 96 1009.3
20190822080713 65 17 0.0 0.0 0.00 0.96 0.00 96 1009.3
20190822075713 65 17 0.0 1.0 0.00 0.96 0.00 96 1009.4
20190822074713 65 17 0.0 0.0 0.00 0.96 0.00 96 1009.4
20190822073711 65 17 0.0 0.0 0.00 0.96 0.00 96 1009.4
20190822072712 66 17 0.0 0.0 0.00 0.96 0.00 96 1009.4
20190822071710 66 17 0.0 0.0 0.00 0.96 0.00 96 1009.3
20190822070709 66 17 0.0 0.0 0.00 0.96 0.00 95 1009.3
20190822065708 67 17 0.0 0.0 0.00 0.96 0.00 96 1009.2
20190822064710 67 17 0.0 0.0 0.00 0.96 0.00 96 1009.3
20190822063708 67 17 0.0 2.0 0.00 0.96 0.00 95 1009.3
20190822062705 67 260 0.0 0.0 0.00 0.96 0.00 96 1009.4
20190822061706 67 317 0.0 3.0 0.00 0.96 0.00 96 1009.2
20190822060704 67 94 0.0 4.0 0.00 0.96 0.00 95 1009.2
20190822055703 67 229 0.0 2.0 0.00 0.96 0.00 95 1009.4
20190822054704 67 229 0.0 1.0 0.00 0.96 0.00 95 1009.7
20190822053704 67 229 0.0 3.0 0.00 0.96 0.00 95 1009.7
20190822052659 68 306 0.0 0.0 0.00 0.96 0.00 95 1009.8
20190822051657 68 200 0.0 0.0 0.00 0.96 0.00 95 1009.9
20190822050654 68 177 0.0 0.0 0.00 0.96 0.00 95 1009.9
20190822045656 68 192 0.0 2.0 0.00 0.96 0.00 95 1010.0
20190822044654 68 163 1.0 2.0 0.00 0.96 0.00 94 1009.9
20190822043654 68 222 0.0 3.0 0.00 0.96 0.00 94 1009.9
20190822042648 69 212 1.0 4.0 0.00 0.96 0.00 94 1009.9
20190822041644 69 220 0.0 1.0 0.00 0.96 0.00 94 1009.9
20190822040642 69 198 0.0 1.0 0.00 0.96 0.00 94 1009.9
20190822035643 69 166 0.0 1.0 0.00 0.96 0.96 94 1009.7
20190822034640 69 227 0.0 2.0 0.00 0.96 0.96 94 1009.6
20190822033640 69 227 0.0 5.0 0.00 0.96 0.96 94 1009.6
20190822032639 70 212 1.0 5.0 0.00 0.96 0.96 94 1009.7
20190822031641 70 84 0.0 2.0 0.00 0.96 0.96 94 1009.7
20190822030639 70 189 0.0 3.0 0.00 0.96 0.96 94 1009.7
20190822025633 71 166 0.0 4.0 0.00 0.96 0.96 94 1009.9
20190822024634 71 170 0.0 4.0 0.00 0.96 0.96 94 1009.6
20190822023635 71 212 2.0 6.0 0.00 0.96 0.96 94 1009.6
20190822022634 71 206 2.0 6.0 0.00 0.96 0.96 94 1009.5
20190822021631 72 175 2.0 5.0 0.00 0.96 0.96 94 1009.4
20190822020632 72 191 2.0 6.0 0.00 0.96 0.96 95 1009.4
20190822015632 72 217 1.0 5.0 0.00 0.96 0.96 96 1009.4
20190822014631 72 232 1.0 7.0 0.00 0.96 0.96 96 1009.2
20190822013633 71 139 0.0 0.0 0.00 0.96 0.96 96 1009.2
20190822012632 71 139 0.0 0.0 0.00 0.96 0.96 96 1009.2
20190822011632 71 139 0.0 0.0 0.00 0.96 0.96 95 1008.9
20190822010632 72 139 0.0 0.0 0.00 0.96 0.96 95 1008.9
20190822005632 72 139 0.0 0.0 0.00 0.96 0.96 95 1009.4
20190822004631 72 139 0.0 3.0 0.00 0.96 0.96 95 1009.4
20190822003629 72 194 0.0 0.0 0.00 0.96 0.96 95 1009.4
20190822002628 72 194 0.0 0.0 0.00 0.96 0.96 94 1009.3
20190822001629 73 194 0.0 1.0 0.00 0.96 0.96 93 1009.1
20190822000626 73 195 2.0 6.0 0.00 0.96 0.96 93 1009.1
20190821235626 73 203 2.0 7.0 0.00 0.96 0.96 93 1009.5
20190821234627 73 164 2.0 6.0 0.00 0.96 0.96 93 1009.5
20190821233626 73 225 2.0 6.0 0.00 0.96 0.96 93 1009.5
20190821232626 74 206 2.0 6.0 0.00 0.96 0.96 93 1009.8
20190821231625 74 181 1.0 4.0 0.00 0.96 0.96 93 1009.9
20190821230625 74 221 2.0 5.0 0.00 0.96 0.96 94 1009.9
20190821225626 74 204 0.0 3.0 0.00 0.96 0.96 94 1010.0
20190821224623 74 201 1.0 5.0 0.00 0.96 0.96 94 1009.9
20190821223624 74 187 1.0 3.0 0.00 0.96 0.96 94 1009.9
20190821222625 75 188 1.0 6.0 0.00 0.96 0.96 94 1010.1
20190821221625 75 187 0.0 1.0 0.00 0.96 0.96 94 1010.0
20190821220625 75 187 0.0 4.0 0.00 0.96 0.96 94 1010.0
20190821215623 75 170 1.0 3.0 0.00 0.96 0.96 94 1009.9
20190821214624 75 212 2.0 6.0 0.00 0.96 0.96 95 1010.0
20190821213623 74 198 2.0 5.0 0.00 0.96 0.96 95 1010.0
20190821212623 74 204 1.0 4.0 0.00 0.96 0.96 95 1010.5
20190821211623 74 157 0.0 4.0 0.00 0.96 0.96 95 1010.4
20190821210625 74 188 0.0 0.0 0.00 0.96 0.96 95 1010.4
20190821205622 73 182 0.0 2.0 0.00 0.96 0.96 95 1010.5
20190821204622 73 152 0.0 3.0 0.00 0.96 0.96 95 1010.8
20190821203621 73 198 0.0 0.0 0.00 0.96 0.96 94 1010.8
20190821202622 73 198 0.0 0.0 0.00 0.96 0.96 94 1010.9
20190821201621 72 198 0.0 0.0 0.01 0.96 0.96 94 1011.3
20190821200622 72 198 0.0 3.0 0.01 0.96 0.96 94 1011.3
20190821195622 72 145 0.0 0.0 0.01 0.96 0.96 94 1011.3
20190821194623 71 145 0.0 0.0 0.01 0.96 0.96 94 1011.4
20190821193619 71 129 0.0 0.0 0.01 0.96 0.96 94 1011.4
20190821192618 71 129 0.0 0.0 0.01 0.96 0.96 94 1011.3
20190821191613 71 129 0.0 0.0 0.00 0.95 0.95 94 1011.6
20190821190611 71 129 0.0 0.0 0.00 0.95 0.95 94 1011.6
20190821185611 71 129 1.0 5.0 0.02 0.95 0.95 94 1011.6
20190821184611 71 149 1.0 3.0 0.54 0.95 0.95 94 1011.8
20190821183611 70 5 1.0 3.0 0.91 0.95 0.95 95 1011.8
20190821182611 70 23 1.0 2.0 0.95 0.95 0.95 94 1011.6
20190821181613 70 23 1.0 5.0 0.95 0.95 0.95 95 1012.4
20190821180611 68 276 2.0 5.0 0.95 0.95 0.95 93 1012.4
20190821175608 68 60 4.0 10.0 0.93 0.93 0.94 91 1012.6
20190821174606 73 301 2.0 21.0 0.41 0.41 0.41 88 1012.5
20190821173603 75 206 1.0 3.0 0.04 0.04 0.04 89 1012.5
20190821172553 79 195 2.0 7.0 0.00 0.00 0.00 80 1012.6
20190821171555 80 133 3.0 9.0 0.00 0.00 0.00 76 1012.6
20190821170553 80 145 2.0 5.0 0.00 0.00 0.00 78 1012.6
20190821165553 80 165 2.0 5.0 0.00 0.00 0.00 79 1013.0
20190821164554 79 176 1.0 5.0 0.00 0.00 0.00 82 1013.1
20190821163553 80 210 1.0 4.0 0.00 0.00 0.00 79 1013.1
20190821162551 79 155 0.0 1.0 0.00 0.00 0.00 81 1013.4
20190821161548 77 179 0.0 1.0 0.00 0.00 0.00 81 1013.6
20190821160549 78 180 1.0 3.0 0.00 0.00 0.00 80 1013.6